星链-3155 (STARLINK-3155 )

导读

STARLINK-3155是美国太空探索技术公司Starlink星链互联网星座的一颗卫星,于2021年12月2日发射入轨,属于星链低轨星座组网卫星,主要为全球提供覆盖广泛的低延迟卫星互联网服务,为航空、海事、偏远地区等场景提供网络接入,星链系列卫星长期受轨道与太空碎片问题争议。

基本信息
目录编号:
49739
目录名称:
STARLINK-3155
国际标识:
2021-115R
轨道中心:
EARTH
卫星名称:
星链-3155
卫星全名:
星链-3155 (STARLINK-3155 )
卫星状态:
在轨 (已飞行1745 天)
发射日期:
2021-12-02 UTC
国别 :
美国 (US)
星等 :
--
该卫星已列入 空间交会检测服务 Space Conjunction Data Service (SCDS) ,当前飞行风险评估等级: 无高风险
轨道信息
数据来源 国际轨道数据
星历时间: 2026-09-11T20:56:09+0800
15小时前
查看轨道信息
半长轴: 6831.721km
偏心率: 0.0001865
轨道倾角: 53.160°
近地点辐角 347.366°
升交点赤经 33.091°
平近点角 12.730°
近地点: 452.309km
远地点: 454.859km
周期: 93.660分钟
每日圈数: 15.374735
详细信息
固有亮度:
5
最大亮度:
2.5
卫星平台:
Starlink v1.5
覆盖范围:
全球
运营商:
太空探索技术公司
运营商所在国:
美国
制造商(研发单位):
太空探索技术公司
制造商所在国:
美国
使用方式:
暂无
卫星简介
星链(Starlink)计划是由太空探索技术公司(SpaceX)提出的一个巨型低轨卫星互联网星座项目,计划在2019年至2024年间在太空搭建由约1.2万颗卫星组成的“星链”网络,其中1584颗将部署在地球上空550千米处的近地轨道,并从2020年开始工作。该卫星仍在工作。
2D轨道图
3D轨道图
轨道高度分析图
轨道倾角分析图
轨道综合分析图
查看轨道综合分析图
与全量物体交会距离演化趋势
与全量物体交会风险概率演化趋势